Regional Weather Roundup
Issued by NWS

Home | Current Version | Previous Version | Text Only | Print | Product List | Glossary Off
Versions: 1 2 3 4 5 6 7 8 9 10 11 12 13 14 15 16 17 18 19 20 21 22 23 24 25 26 27 28 29 30 31 32 33 34 35 36 37 38 39 40 41 42 43 44 45 46 47 48 49 50

000
ASUS43 KOAX 280710
RWRNE

WEATHER ROUNDUP FOR NEBRASKA
NATIONAL WEATHER SERVICE OMAHA NE
200 AM CDT FRI APR 28 2017

NOTES: SATELLITE DATA IS BEING USED TO AUGMENT CLOUD COVER ABOVE
       12000 FEET.
       "FAIR" INDICATES FEW OR NO CLOUDS BELOW 12,000 FEET WITH NO
       SIGNIFICANT WEATHER AND/OR OBSTRUCTIONS TO VISIBILITY.

  * THESE STATIONS DO NOT REPORT WEATHER SUCH AS RAIN...SNOW OR FOG.

NEZ001>004-019>022-054>056-280800-
NEBRASKA PANHANDLE

CITY           SKY/WX    TMP DP  RH WIND       PRES   REMARKS
SCOTTSBLUFF    CLOUDY    42  38  85 E13       29.61F
ALLIANCE       LGT RAIN  39  37  92 SE16      29.63S WCI  30
CHADRON        RAIN      40  38  93 E9        29.67S FOG     WCI  34
KIMBALL        CLOUDY    37  36  94 SW6       29.62S WCI  33
SIDNEY         CLOUDY    38  36  92 SE7       29.63F WCI  33
$$

NEZ057>060-069>072-079>082-280800-
SOUTHWEST NEBRASKA

CITY           SKY/WX    TMP DP  RH WIND       PRES   REMARKS
NORTH PLATTE   RAIN      44  42  93 E10       29.66F FOG
IMPERIAL       LGT RAIN  42  40  92 NE8       29.62F
LEXINGTON      LGT RAIN  45  42  90 E10       29.67F
MCCOOK         HVY RAIN  44  43  96 E16       29.60S FOG
OGALLALA       RAIN      38  37  93 SE8       29.66F WCI  32
$$

NEZ005>010-023>029-035>040-094-280800-
NORTH CENTRAL NEBRASKA

CITY           SKY/WX    TMP DP  RH WIND       PRES   REMARKS
VALENTINE      CLOUDY    43  32  65 E14       29.75R
AINSWORTH      CLOUDY    40  36  83 E15       29.75S WCI  32
BROKEN BOW     CLOUDY    45  40  82 E10       29.69F
O`NEILL        CLOUDY    41  32  70 E13G18    29.78S
ORD            CLOUDY    45  40  82 NE9       29.71F
THEDFORD       DRIZZLE   43  41  92 E7        29.71S
$$

NEZ041-046>049-061>064-073>077-083>087-280800-
SOUTH CENTRAL NEBRASKA

CITY           SKY/WX    TMP DP  RH WIND       PRES   REMARKS
GRAND ISLAND   CLOUDY    46  43  89 E8        29.72F
AURORA         CLOUDY    47  43  84 E7        29.72S
HASTINGS       CLOUDY    47  43  86 E13       29.70F
HEBRON         RAIN      47  44  90 E7        29.70F
HOLDREGE       LGT RAIN  44  42  93 SE16      29.67S
KEARNEY *      CLOUDY    46  39  76 E12       29.69S
YORK           CLOUDY    48  43  81 E10       29.73F
$$

NEZ011>018-030>034-042>045-280800-
NORTHEAST NEBRASKA

CITY           SKY/WX    TMP DP  RH WIND       PRES   REMARKS
NORFOLK        CLEAR     41  32  70 E8        29.78R
ALBION         CLOUDY    43  34  69 E10       29.76S
BLAIR          CLOUDY    45  36  72 NE12      29.78F
FREMONT        CLOUDY    45  35  67 NE8       29.79S
TEKAMAH        CLOUDY    39  32  76 NE3       29.81R
WAYNE          CLEAR     34  33  94 N6        29.81R WCI  29
$$

NEZ050>053-065>068-078-088>093-280800-
SOUTHEAST NEBRASKA

CITY           SKY/WX    TMP DP  RH WIND       PRES   REMARKS
LINCOLN        LGT RAIN  50  44  80 E5        29.77S
OMAHA EPPLEY   CLOUDY    48  34  58 VRB3      29.79S
BEATRICE       DRIZZLE   49  47  93 E6        29.75F
FALLS CITY     CLOUDY    50  47  89 CALM      29.78R
NEBRASKA CITY  CLOUDY    50  43  79 SE5       29.78S
PLATTSMOUTH    CLOUDY    50  33  52 E3        29.78R
$$

NEZ044-045-051>053-067-280800-
OMAHA AREA

CITY           SKY/WX    TMP DP  RH WIND       PRES   REMARKS
OMAHA EPPLEY   CLOUDY    48  34  58 VRB3      29.79S
BLAIR          CLOUDY    45  36  72 NE12      29.78F
FREMONT        CLOUDY    45  35  67 NE8       29.79S
MILLARD        CLOUDY    53  37  55 NE3       29.78S
OFFUTT AFB     CLOUDY    50  36  59 NE9       29.78R
PLATTSMOUTH    CLOUDY    50  33  52 E3        29.78R
WAHOO          CLOUDY    48  35  61 NE9       29.77S
$$



USA.gov is the U.S. government's official web portal to all federal, state and local government web resources and services.